sat.trackr.live / text

‹ back to catalog

STARLINK-4087

NORAD 53156 · 2022-083AA

PAYLOAD ACTIVE UNKNOWN

§ Identity

Operator
Country
US
Launch date
2022-07-17
Launch site
AFETR
Launch vehicle
Mass (kg)
RCS (m²)

Purposes: comms

External: N2YO · Heavens-Above · Gunter

§ Orbital elements

Epoch: 2026-09-20T00:27:38.831616Z

Period
93.85 min
Inclination
53.1607°
Eccentricity
0.0001472
Mean motion
15.34388896 rev/d
Perigee alt
461.7 km
Apogee alt
463.7 km
Semi-major
6,840.9 km
B*
-6.1546e-6
RAAN
5.6221°
Arg perigee
63.9196°
Mean anomaly
296.1957°
Rev number
23,077

§ Raw data

STARLINK-40871 53156U 22083AA  26263.01919944 -.00000584  00000+0 -61546-5 0  99962 53156  53.1607   5.6221 0001472  63.9196 296.1957 15.34388896230771

JSON: /api/v1/satellites/53156 · /tle

For live sub-satellite position, see the globe view (requires WebGL).

§ Visibility from observer

Set your observer location to see the next 7 days of passes ≥ 10°. The values pass through the URL so the page stays shareable.

No JS? Fill the form by hand. The geolocation button needs JavaScript.